Wind_Speed
23 24 25 27 25 24 22 21 21 22 22 21 23 23 22 20 18 20 23 24 25 24 24 26 28 29 32 34 34 33 32 31 35 34 29 30 31 33 35 39 42 45 48 51
25 27 29 28 24 23 22 21 22 23 22 23 24 24 24 24 22 21 23 25 24 25 28 29 30 31 33 35 36 36 35 35 36 36 35 36 37 38 41 43 45 47 50 53
26 29 29 26 24 22 22 22 22 24 24 24 24 23 24 25 27 26 26 26 27 29 31 32 33 34 34 35 37 38 38 38 38 39 42 42 44 47 47 47 48 50 55 59
28 29 28 26 24 22 23 23 24 24 22 19 21 15 25 23 24 26 27 28 30 32 33 34 35 36 35 36 38 39 40 42 43 45 47 48 51 51 51 52 55 59 62 66
28 29 28 26 24 23 24 24 24 24 23 22 22 16 22 24 23 25 26 28 30 32 33 34 35 36 37 39 40 41 43 45 46 47 49 51 53 54 56 59 63 66 69 71
27 27 27 26 24 23 24 24 25 25 22 21 20 17 18 23 22 24 26 27 29 32 34 36 37 39 40 41 42 43 44 46 47 49 51 53 56 59 62 65 68 71 74 76
26 27 26 25 24 24 24 23 23 21 21 19 23 20 22 24 23 25 26 28 31 33 36 38 40 41 42 42 42 42 42 44 46 49 52 56 59 63 67 70 73 76 78 80
28 27 27 25 24 24 23 22 21 20 18 18 27 23 26 24 25 26 28 30 32 34 35 36 36 37 37 37 37 39 42 45 49 53 57 61 64 67 71 74 78 81 83 84
27 25 28 25 24 25 24 24 22 23 23 22 23 27 25 24 26 27 28 29 31 32 31 30 30 31 32 34 37 41 45 50 54 58 62 66 69 72 77 80 83 85 85 84
29 27 28 26 26 26 26 24 26 26 24 24 22 25 25 25 26 30 32 33 34 32 31 30 31 33 36 39 43 47 51 55 59 63 67 71 75 79 82 84 85 84 81 76
32 30 30 30 29 26 26 26 26 24 23 23 21 24 31 29 31 33 35 36 35 33 33 35 36 39 42 45 49 53 57 61 65 70 74 78 81 83 84 84 81 75 66 58
35 33 31 34 32 29 29 28 26 25 26 26 25 30 34 33 34 37 39 39 37 37 38 39 40 43 46 50 53 58 62 68 72 77 80 83 83 83 79 73 64 54 46 44
39 38 38 41 37 34 32 29 26 26 27 30 28 32 35 34 38 40 42 41 40 40 41 42 44 47 50 54 58 63 68 73 77 80 81 80 76 69 60 51 43 39 38 37
43 43 43 41 35 34 33 30 28 28 30 32 33 36 36 39 41 43 43 42 42 42 43 45 47 50 53 58 62 67 71 75 77 75 70 63 54 45 39 34 32 31 30 29
45 46 46 44 40 39 38 36 35 34 35 35 38 39 38 41 43 43 43 42 42 43 44 46 48 52 56 61 65 68 69 67 62 55 46 39 32 28 26 24 23 23 24 26
47 48 46 45 44 42 43 42 40 39 37 37 38 40 40 42 42 42 42 41 42 43 44 46 50 54 58 62 64 62 55 47 39 33 28 23 20 19 18 18 19 21 23 24
46 46 45 46 45 43 45 44 41 39 38 38 40 40 40 41 40 40 41 41 41 42 43 47 52 56 60 61 57 46 35 28 26 23 21 19 17 17 18 20 22 24 25 26
40 40 41 42 41 42 47 41 40 39 39 39 40 39 39 40 40 40 40 40 40 41 45 50 54 58 59 53 41 28 21 20 19 19 20 20 20 21 23 24 26 27 28 29
37 37 37 37 37 41 39 37 36 37 38 38 38 38 38 39 38 39 38 38 39 42 47 52 55 55 49 37 24 16 15 16 17 19 21 23 24 25 26 27 28 29 30 30
37 36 36 35 35 37 35 34 35 36 38 36 36 37 36 35 36 37 35 36 39 44 49 52 50 43 31 20 12 10 12 14 16 19 22 25 26 28 29 31 32 32 32 32
40 38 37 34 33 35 32 32 33 35 35 34 34 33 33 33 32 32 34 37 41 46 48 44 36 26 16 8 6 7 10 13 16 20 23 26 28 30 33 35 36 36 34 33
38 35 35 34 33 31 30 31 31 32 32 32 31 30 30 29 29 31 34 38 42 44 40 31 21 11 4 2 3 6 9 13 18 21 24 27 30 33 36 38 38 36 32 30
40 37 34 33 32 30 29 28 27 28 28 28 27 27 26 26 27 31 35 39 40 36 27 17 8 2 2 3 4 7 11 15 19 23 27 30 34 37 39 40 38 34 29 28
27 30 29 24 23 25 26 25 25 25 25 26 25 23 22 24 28 31 35 36 31 22 13 6 4 5 7 5 6 9 13 17 21 24 28 32 36 38 40 40 38 33 28 27
15 17 20 21 21 23 24 25 25 24 24 23 21 21 23 26 29 32 33 27 19 10 5 6 9 10 8 7 9 12 15 18 21 25 29 33 36 39 41 41 39 33 28 27
19 21 23 24 24 24 24 24 24 23 21 19 19 22 24 26 29 30 25 16 8 5 9 11 12 11 9 9 10 12 15 18 21 25 29 33 36 40 41 42 39 34 29 29
Wind_Direction
243 243 244 247 252 257 262 264 268 270 275 273 270 271 273 269 260 261 263 266 271 276 280 282 285 291 296 299 300 298 295 288 281 274 277 281 280 282 283 284 286 287 290 292
245 245 247 252 255 258 262 265 266 266 269 270 269 270 270 269 266 263 265 268 269 270 273 276 279 285 291 294 295 293 290 287 283 280 286 287 286 287 289 289 289 291 293 294
247 248 249 251 254 257 261 263 265 268 271 271 272 273 266 264 267 268 267 268 266 268 272 276 281 286 289 290 291 291 289 288 286 286 288 287 288 292 294 294 295 296 296 298
245 248 249 251 254 255 260 261 263 266 269 268 268 261 277 267 265 265 265 267 270 275 279 283 287 289 289 289 289 289 288 288 287 286 286 286 289 291 293 295 296 297 298 299
247 249 251 252 254 255 257 263 264 266 265 262 270 253 267 276 274 272 271 272 275 279 282 284 285 285 285 286 285 284 285 284 284 284 286 288 290 292 294 295 296 296 297 297
248 250 251 253 255 257 261 263 264 266 265 264 260 261 257 269 269 270 271 273 275 276 277 278 279 280 281 281 280 279 280 280 282 285 288 289 290 292 293 294 294 294 295 297
246 249 251 253 256 257 259 260 263 264 263 263 262 266 252 272 273 272 274 278 281 281 280 279 279 280 281 280 279 279 281 283 285 287 288 289 290 291 291 292 293 294 296 298
252 254 255 255 255 256 255 253 250 251 253 258 269 266 270 277 278 280 283 287 289 289 287 285 284 283 282 282 283 284 285 286 287 288 289 289 290 291 292 293 294 296 297 299
251 249 254 254 253 252 252 250 246 247 251 247 256 268 278 281 286 290 292 295 297 297 294 291 288 287 286 286 286 287 287 288 289 290 291 292 292 293 293 294 295 297 298 299
249 246 252 251 250 250 247 245 245 245 248 253 254 270 278 283 291 296 300 303 302 299 296 294 293 293 293 293 292 292 293 294 294 293 293 293 293 293 294 295 297 298 298 298
246 247 250 250 248 248 247 246 246 246 242 246 253 260 275 284 291 295 298 301 300 297 296 296 296 297 297 297 297 297 297 297 296 296 295 295 295 296 297 298 299 299 298 296
243 244 246 251 251 248 246 245 244 246 252 253 251 257 266 279 288 293 297 300 299 297 296 296 297 299 300 301 301 301 300 299 299 298 297 298 298 299 299 300 300 298 297 296
240 239 240 247 250 249 249 249 251 255 255 258 260 267 274 282 286 291 295 298 298 298 298 299 301 303 303 303 303 302 301 301 300 300 300 299 299 300 301 301 300 300 299 298
239 240 242 247 254 259 255 255 260 262 260 262 264 267 278 285 288 291 295 297 299 299 300 302 303 304 303 303 302 303 303 304 304 303 302 302 303 304 304 304 304 303 302 303
237 240 241 244 244 248 256 257 259 259 258 260 268 274 277 282 287 291 294 296 297 298 300 301 301 301 301 302 304 306 308 309 309 310 310 311 312 313 314 314 313 311 311 313
235 240 243 245 246 249 253 256 258 260 263 265 269 274 279 283 287 290 291 293 295 296 297 298 299 300 302 304 308 311 313 317 322 327 330 333 333 332 331 329 327 326 326 326
235 238 241 243 245 248 250 253 257 261 263 266 270 275 279 282 285 288 290 291 293 294 296 297 299 300 303 307 311 313 319 330 340 351 358 359 356 352 346 340 336 331 328 324
232 235 236 240 241 242 248 252 255 259 262 265 269 273 276 280 284 287 289 290 292 293 295 297 299 303 307 310 311 314 323 335 347 356 0 360 356 350 345 340 335 330 325 322
224 229 234 238 240 245 250 253 255 257 260 263 267 271 276 282 285 288 290 289 290 292 295 299 303 306 309 309 310 314 324 336 346 354 357 357 354 350 345 341 338 333 328 324
221 230 237 239 240 246 250 252 255 257 260 264 268 273 278 283 283 287 287 287 290 294 298 302 306 308 309 308 309 318 331 343 350 355 357 357 355 352 349 346 341 336 331 326
223 230 236 238 239 246 251 252 255 256 262 265 268 273 277 279 279 281 283 287 293 298 302 306 308 308 308 308 321 340 349 355 359 1 1 1 359 356 353 349 344 339 335 332
226 229 234 239 244 248 250 251 253 259 263 265 269 272 273 274 274 278 285 292 297 302 305 306 305 303 304 341 17 9 8 8 8 8 8 6 3 359 356 353 349 345 342 341
234 234 237 238 240 245 248 251 256 262 264 265 266 267 269 271 276 285 292 298 303 305 306 301 290 242 139 112 61 33 23 19 16 13 12 9 6 2 360 357 354 352 351 350
230 231 231 230 233 239 245 251 259 263 261 260 261 263 266 275 284 291 298 303 305 304 296 268 185 150 136 110 68 42 30 23 17 14 12 10 7 5 3 2 360 358 357 356
233 227 227 231 238 244 248 252 255 258 257 255 255 262 272 281 289 296 302 304 301 286 235 175 154 145 130 98 66 44 30 20 16 14 13 10 8 7 6 5 4 3 1 359
234 233 232 235 239 244 248 251 251 246 242 245 256 267 276 284 292 300 302 296 268 200 166 156 150 141 120 90 62 40 26 19 16 14 11 9 7 7 7 7 7 6 3 360
Height
5854 5856 5855 5856 5858 5860 5861 5862 5862 5861 5859 5859 5858 5858 5858 5859 5860 5859 5858 5857 5857 5856 5854 5852 5849 5845 5842 5838 5835 5831 5828 5825 5821 5817 5815 5814 5813 5811 5808 5805 5802 5799 5795 5792
5849 5849 5849 5850 5853 5854 5855 5856 5856 5856 5855 5854 5852 5853 5853 5853 5853 5854 5853 5852 5852 5851 5848 5846 5844 5841 5837 5832 5828 5824 5820 5818 5814 5810 5807 5805 5803 5801 5798 5795 5792 5788 5784 5780
5842 5843 5843 5845 5847 5849 5849 5850 5851 5850 5850 5849 5848 5847 5848 5847 5847 5848 5847 5846 5845 5844 5841 5839 5837 5834 5831 5826 5822 5817 5813 5810 5807 5803 5800 5796 5792 5790 5787 5783 5779 5775 5771 5766
5835 5836 5838 5839 5841 5843 5843 5844 5845 5845 5845 5846 5845 5849 5840 5841 5842 5842 5841 5840 5838 5835 5833 5831 5828 5825 5822 5819 5815 5810 5806 5802 5799 5795 5791 5787 5784 5780 5776 5771 5766 5761 5756 5751
5828 5829 5831 5833 5835 5836 5837 5837 5838 5838 5839 5840 5839 5843 5839 5835 5834 5834 5833 5832 5830 5828 5825 5822 5820 5817 5814 5811 5807 5803 5799 5794 5790 5785 5781 5777 5773 5768 5763 5757 5752 5747 5741 5736
5822 5823 5824 5826 5828 5829 5830 5831 5831 5831 5833 5834 5834 5835 5837 5829 5829 5827 5826 5824 5823 5821 5818 5815 5811 5808 5805 5802 5798 5795 5790 5786 5782 5777 5773 5768 5763 5757 5751 5745 5740 5734 5727 5720
5815 5816 5817 5819 5821 5822 5823 5825 5826 5826 5827 5829 5826 5827 5827 5824 5823 5821 5819 5817 5815 5812 5809 5806 5803 5799 5796 5793 5789 5786 5782 5778 5774 5769 5763 5757 5751 5745 5739 5732 5725 5718 5711 5703
5809 5810 5811 5812 5814 5815 5816 5819 5822 5823 5825 5825 5818 5819 5817 5817 5815 5813 5812 5809 5806 5803 5800 5796 5793 5790 5787 5784 5781 5777 5773 5769 5763 5757 5751 5745 5739 5731 5723 5716 5708 5700 5692 5684
5803 5805 5803 5805 5806 5808 5809 5810 5814 5816 5815 5816 5815 5810 5810 5809 5808 5806 5804 5801 5798 5794 5791 5788 5786 5783 5780 5776 5772 5768 5762 5757 5751 5744 5737 5730 5723 5715 5706 5698 5690 5682 5673 5664
5795 5797 5796 5798 5799 5800 5802 5804 5804 5806 5807 5808 5809 5805 5803 5801 5800 5798 5795 5793 5790 5787 5783 5780 5777 5774 5770 5766 5761 5756 5750 5744 5737 5729 5722 5714 5706 5697 5688 5679 5670 5662 5653 5645
5787 5789 5789 5790 5792 5794 5795 5796 5797 5799 5801 5802 5803 5803 5794 5794 5793 5790 5787 5785 5782 5779 5776 5772 5768 5764 5760 5755 5750 5744 5738 5730 5722 5713 5704 5695 5686 5676 5667 5657 5649 5641 5634 5628
5778 5780 5781 5781 5783 5785 5787 5789 5790 5792 5792 5792 5795 5795 5790 5787 5785 5782 5779 5777 5774 5771 5767 5763 5759 5755 5750 5744 5738 5731 5723 5714 5704 5694 5684 5674 5664 5655 5646 5638 5631 5625 5620 5617
5769 5771 5772 5770 5774 5776 5777 5780 5783 5784 5785 5784 5785 5786 5781 5779 5777 5774 5771 5768 5765 5761 5758 5753 5748 5744 5738 5732 5725 5717 5708 5698 5687 5675 5664 5654 5645 5637 5629 5623 5618 5615 5612 5608
5757 5760 5762 5763 5766 5768 5768 5771 5773 5775 5776 5776 5776 5774 5773 5770 5768 5766 5763 5759 5756 5752 5748 5743 5738 5733 5727 5720 5713 5704 5694 5682 5669 5656 5645 5635 5628 5623 5618 5615 5612 5609 5605 5601
5744 5747 5750 5753 5756 5758 5759 5761 5763 5765 5767 5768 5766 5764 5764 5762 5760 5757 5754 5750 5747 5743 5739 5735 5729 5724 5717 5709 5701 5691 5680 5667 5653 5641 5631 5624 5619 5616 5613 5610 5607 5604 5600 5595
5731 5735 5739 5742 5745 5748 5750 5751 5753 5755 5756 5757 5757 5756 5755 5754 5751 5749 5746 5743 5739 5735 5731 5726 5720 5714 5706 5698 5690 5680 5669 5657 5645 5635 5627 5621 5617 5614 5611 5608 5604 5600 5595 5590
5720 5725 5730 5731 5735 5738 5739 5741 5743 5745 5746 5748 5747 5748 5746 5744 5742 5740 5738 5735 5731 5727 5722 5717 5710 5703 5696 5688 5680 5671 5662 5653 5644 5636 5629 5623 5618 5614 5610 5606 5601 5596 5591 5585
5708 5713 5717 5720 5725 5727 5727 5732 5734 5735 5736 5737 5738 5738 5736 5735 5734 5732 5729 5726 5723 5718 5713 5707 5700 5693 5686 5678 5671 5664 5658 5652 5645 5638 5631 5626 5620 5615 5610 5605 5599 5592 5586 5580
5697 5703 5707 5711 5714 5714 5720 5723 5725 5726 5726 5727 5728 5728 5727 5726 5724 5722 5721 5717 5714 5709 5704 5697 5690 5683 5676 5670 5664 5660 5656 5651 5645 5639 5633 5627 5621 5615 5608 5602 5595 5587 5580 5573
5688 5693 5698 5702 5705 5706 5711 5713 5713 5715 5716 5718 5718 5718 5718 5717 5716 5713 5712 5708 5705 5700 5694 5687 5680 5674 5668 5664 5661 5658 5655 5651 5646 5640 5633 5627 5620 5613 5606 5599 5591 5583 5575 5567
5678 5683 5688 5692 5695 5694 5701 5703 5704 5706 5708 5708 5709 5709 5709 5708 5707 5706 5703 5700 5696 5691 5685 5678 5672 5667 5664 5661 5660 5658 5655 5651 5646 5640 5633 5626 5619 5612 5603 5595 5586 5577 5569 5561
5669 5673 5678 5682 5685 5690 5692 5693 5695 5696 5698 5699 5700 5700 5700 5700 5699 5697 5695 5691 5687 5681 5675 5670 5666 5664 5662 5661 5660 5658 5655 5651 5645 5639 5633 5626 5618 5610 5601 5592 5582 5572 5564 5556
5661 5666 5669 5674 5678 5681 5683 5684 5686 5688 5689 5690 5691 5692 5692 5693 5692 5689 5686 5682 5677 5672 5668 5665 5663 5662 5661 5661 5660 5658 5655 5650 5645 5639 5632 5624 5617 5609 5600 5590 5580 5570 5561 5554
5652 5657 5661 5665 5668 5671 5674 5676 5678 5680 5682 5683 5684 5685 5686 5686 5684 5681 5678 5674 5669 5665 5663 5662 5662 5662 5662 5662 5661 5658 5655 5650 5645 5638 5631 5624 5616 5608 5598 5588 5578 5568 5560 5553
5647 5651 5654 5658 5661 5664 5667 5669 5671 5673 5675 5677 5679 5679 5680 5679 5677 5674 5671 5667 5664 5662 5661 5661 5662 5663 5663 5663 5661 5658 5655 5650 5645 5639 5631 5624 5616 5607 5597 5588 5578 5569 5561 5553
5640 5644 5648 5651 5655 5658 5660 5662 5664 5667 5670 5672 5673 5673 5673 5672 5670 5667 5665 5662 5661 5661 5661 5662 5664 5665 5665 5663 5661 5659 5655 5651 5645 5639 5632 5624 5616 5607 5597 5588 5578 5569 5561 5553